RH
23 13 12 14 15 17 18 18 16 15 12 9 8 8 11 14 16 18 19 26 43 68 91 96 90 91 91 91 96 100 100 99 96 99 99 101 102 84 75 90 102 105 90 65 70 85 80 82 91 92 92 91 92 92 91 90 86 82 81 79 79 76 71
27 14 13 16 16 17 18 17 16 15 12 9 9 8 10 14 16 19 21 29 46 66 83 88 83 80 75 75 88 99 102 99 96 100 98 99 102 78 58 76 92 98 102 83 67 75 82 85 91 95 96 96 96 96 95 95 91 86 84 82 83 82 77
34 17 14 16 17 18 18 18 16 15 13 10 9 8 10 13 17 20 22 27 38 50 68 82 81 73 66 70 87 99 101 99 94 96 101 99 89 63 44 57 74 85 101 98 79 78 90 95 96 98 99 98 98 99 98 97 95 92 89 85 85 87 84
38 20 17 17 18 18 18 18 16 15 14 11 9 9 10 13 18 21 23 26 33 43 60 75 72 64 63 68 85 98 99 99 96 95 100 90 64 46 42 47 61 81 99 102 93 89 95 99 99 99 99 98 98 100 99 98 96 94 91 86 85 88 85
45 23 18 17 18 18 18 18 17 16 14 11 10 9 9 13 17 21 25 27 31 41 53 61 59 55 58 65 85 101 97 90 89 88 87 72 47 38 43 41 50 79 99 101 99 98 98 99 100 98 98 98 99 99 98 98 95 91 89 86 86 86 82
61 34 21 17 17 18 18 18 18 17 15 12 10 9 9 12 16 20 25 26 28 35 42 50 55 51 53 70 91 101 96 86 81 72 60 50 39 36 39 40 53 81 99 99 99 100 99 99 100 99 99 99 99 99 98 97 95 91 88 86 85 82 79
75 47 26 20 19 18 18 19 19 18 17 13 10 10 10 11 15 19 23 25 26 30 35 43 46 43 56 83 100 102 97 82 62 47 43 50 56 49 41 49 71 93 101 99 99 99 99 100 99 97 99 100 99 98 99 98 96 92 87 83 82 80 79
82 56 33 24 21 20 19 20 20 20 18 14 11 10 10 11 14 17 20 24 26 26 30 30 29 42 73 98 100 90 78 59 47 54 70 81 78 59 43 55 83 99 99 98 100 99 99 98 95 95 99 100 99 98 99 98 95 91 88 85 83 81 79
88 66 44 31 24 22 22 21 21 21 18 15 12 9 10 11 13 15 19 23 24 22 22 19 24 53 87 99 90 78 69 65 71 86 93 84 65 45 40 61 91 102 99 98 100 99 98 97 96 98 100 100 100 99 99 99 98 95 93 89 87 87 82
91 75 54 38 29 25 24 22 21 21 19 16 13 10 10 11 11 14 18 20 21 19 16 16 31 62 86 86 73 61 55 56 58 61 64 56 43 36 48 76 98 100 97 101 100 96 96 98 100 100 100 100 100 100 100 101 100 99 96 92 90 89 85
94 82 64 46 34 28 25 24 23 25 22 17 13 11 10 11 11 13 16 19 19 16 13 16 31 54 64 57 44 32 27 27 28 33 41 39 33 32 46 77 101 101 98 101 96 85 86 96 101 99 99 101 99 100 101 100 101 101 99 98 95 90 89
96 88 74 57 43 34 30 28 28 29 25 18 15 14 12 11 11 12 14 16 16 15 15 16 22 31 32 27 24 21 19 21 25 32 36 33 33 32 32 52 86 101 98 88 77 69 74 91 102 100 98 100 100 100 100 100 101 100 98 99 99 96 92
98 93 84 70 55 44 39 36 33 32 29 21 16 18 18 14 10 11 13 14 15 16 16 16 16 16 17 17 20 20 20 22 26 31 34 32 33 32 25 31 53 68 66 58 58 62 66 80 98 101 98 100 100 100 100 100 101 98 93 94 98 98 94
99 96 91 80 66 54 49 44 39 36 32 24 18 20 25 21 13 12 12 13 15 16 16 18 16 14 15 18 19 20 20 24 28 31 33 32 31 28 26 28 33 36 37 35 39 50 61 75 94 102 99 99 100 99 100 100 100 98 95 95 94 89 87
100 98 95 89 77 67 59 51 45 42 35 26 21 25 31 28 20 16 13 12 15 15 16 19 17 15 17 17 19 21 20 23 29 31 31 31 29 27 26 27 29 32 33 30 33 54 75 86 95 101 100 99 100 100 100 100 100 99 99 100 98 91 83
100 99 98 95 87 77 66 56 52 48 37 28 27 31 33 30 23 18 14 12 14 15 16 18 18 18 18 17 19 19 19 26 33 33 34 37 34 28 26 26 30 33 32 30 39 58 71 75 84 95 101 100 100 100 100 100 100 100 100 100 100 99 92
100 100 99 98 94 83 67 60 59 52 39 34 36 35 33 29 24 20 16 13 14 16 16 16 20 21 19 19 19 16 19 29 33 32 38 43 37 29 25 26 30 31 29 28 33 39 44 53 70 89 100 102 101 101 100 100 100 100 101 100 99 101 98
99 100 99 99 98 90 73 65 63 54 43 42 44 40 35 32 26 23 20 15 14 16 15 15 20 23 22 21 17 16 22 28 33 44 49 44 37 32 30 33 33 28 26 29 29 29 33 42 58 80 98 102 101 100 100 100 100 100 100 100 100 101 98
100 100 100 99 99 97 86 72 61 53 48 48 50 47 40 34 31 27 22 17 15 16 16 16 20 24 25 22 17 20 24 25 40 62 61 44 36 36 38 43 40 32 31 31 28 27 27 32 53 82 98 101 100 101 101 100 100 100 100 100 100 101 99
100 99 100 100 99 99 95 79 60 51 51 53 56 53 45 38 36 32 24 18 17 16 15 17 22 26 26 23 19 20 24 31 50 63 53 37 38 47 55 56 46 37 37 32 27 27 26 35 63 90 97 99 101 101 100 100 100 99 100 100 100 100 98
100 99 100 100 99 100 98 83 62 50 53 59 59 55 51 46 40 33 26 19 17 17 15 18 25 29 28 24 22 21 25 36 47 47 40 40 48 59 64 55 39 36 36 31 28 27 27 42 71 90 94 98 102 101 100 101 100 100 100 100 100 98 91
100 100 100 99 100 100 97 87 69 52 53 63 61 55 56 55 43 33 28 22 17 16 17 20 27 32 31 27 24 24 26 32 37 38 41 46 48 47 46 39 34 36 35 29 28 27 29 48 73 87 92 96 100 101 100 100 100 100 101 100 100 98 89
100 100 100 100 100 99 97 92 77 58 53 63 63 56 60 61 48 35 30 24 17 16 18 23 29 33 32 29 25 24 27 32 37 41 42 42 39 36 35 36 37 37 32 29 28 26 32 51 74 89 93 94 98 101 100 100 101 100 100 101 99 97 91
100 100 100 100 99 99 98 94 84 66 55 61 67 63 62 63 52 41 35 24 16 17 20 25 32 34 32 29 25 25 31 37 40 39 38 37 37 36 38 41 39 35 32 30 27 26 33 51 75 95 98 94 97 102 101 101 102 99 99 102 100 98 95
100 100 100 100 99 99 99 96 89 74 58 60 70 67 61 58 49 45 48 34 16 17 25 27 33 35 30 27 26 29 36 38 35 35 37 39 40 41 43 44 39 34 32 28 25 27 32 45 70 93 101 98 99 102 102 101 101 100 99 100 100 100 99
100 100 99 100 99 99 100 97 93 81 64 62 71 69 61 53 42 47 64 50 21 17 27 29 32 33 28 27 31 33 34 34 34 38 42 42 43 44 44 41 36 32 31 28 26 28 30 38 58 79 93 99 100 99 100 101 100 101 100 99 100 101 99
100 100 99 101 100 100 101 99 95 88 72 65 70 71 64 54 43 52 69 54 23 18 28 30 30 31 29 31 33 31 33 37 39 42 42 38 38 40 39 37 35 33 30 27 26 26 28 33 44 59 76 91 98 99 99 100 101 101 101 100 100 100 100
100 100 99 101 100 99 101 100 97 92 78 68 71 73 68 59 49 47 51 38 21 23 30 30 29 30 31 31 32 33 37 38 35 35 32 28 30 34 35 35 34 30 27 25 23 23 23 26 31 41 56 73 88 97 98 99 101 101 101 101 101 100 101
100 100 100 100 100 100 101 99 96 92 82 72 72 76 73 64 50 39 35 29 25 28 30 29 29 31 31 31 33 37 37 30 25 25 24 23 26 30 31 29 26 23 20 20 19 19 19 20 22 28 38 52 70 85 93 97 100 101 100 101 101 100 100
100 100 100 100 100 100 100 98 96 94 88 79 77 81 78 65 48 39 36 31 27 28 30 29 30 30 30 31 33 32 27 22 22 23 22 21 24 26 25 23 21 20 19 19 19 19 18 18 18 20 25 35 49 64 77 86 93 98 99 100 100 100 100
100 100 100 100 100 100 100 99 99 99 94 85 82 85 79 60 44 40 36 29 26 29 30 29 29 30 29 28 28 25 21 20 23 23 21 22 23 24 24 23 21 22 22 21 21 21 20 19 19 18 19 23 30 41 53 65 76 85 92 97 99 101 100
100 100 100 100 100 100 99 100 100 100 95 89 86 86 75 55 42 40 34 28 28 30 29 28 29 28 26 26 25 23 21 22 23 23 23 23 24 24 25 25 24 24 26 26 26 26 25 23 22 21 20 19 20 23 30 39 50 62 74 84 92 97 100
100 100 100 100 100 99 99 100 101 99 94 89 88 85 70 52 44 42 34 27 29 29 28 29 29 25 23 25 25 24 23 23 24 25 25 24 25 26 27 27 28 29 30 31 32 32 31 30 28 26 25 23 20 20 20 22 28 37 49 61 72 82 91
100 100 100 100 100 100 99 100 101 99 96 92 90 86 72 54 47 45 37 30 30 30 28 28 27 22 23 26 27 26 26 26 26 27 27 27 28 29 29 30 32 33 34 36 37 36 37 37 35 33 32 29 26 24 22 20 20 22 28 37 49 60 71
100 100 100 99 100 100 99 100 100 101 101 98 96 97 86 66 53 48 38 30 29 30 30 29 25 21 23 28 30 30 29 28 28 30 30 30 31 32 33 35 36 37 39 40 40 40 40 40 40 39 37 35 33 30 28 25 23 21 21 23 29 37 47
100 100 100 100 100 99 99 100 99 100 102 99 99 102 94 74 58 49 36 27 27 29 29 29 25 22 25 31 34 35 33 32 32 33 33 34 34 35 37 39 40 41 42 42 42 42 43 43 43 43 41 39 38 36 34 31 29 26 24 22 22 24 29
Wind_Speed
34 34 32 30 29 27 24 23 22 22 20 19 19 18 18 18 18 19 19 19 19 19 20 21 22 23 22 22 23 23 23 24 24 24 25 28 31 32 29 31 33 36 47 54 48 45 47 44 42 42 40 39 41 39 37 36 35 35 35 34 34 32 29
34 34 33 32 30 28 26 24 23 22 21 20 19 19 18 18 18 19 19 19 20 21 22 23 23 23 23 23 24 25 25 25 24 24 28 30 32 34 31 30 34 35 40 50 51 46 46 45 42 42 40 39 42 42 39 38 36 35 34 34 34 33 30
34 34 34 33 32 29 27 25 24 23 21 20 19 19 19 19 19 19 19 20 21 22 23 24 24 24 24 23 23 25 24 25 25 26 29 32 33 34 32 29 32 35 37 44 50 48 46 47 45 43 43 42 41 39 39 39 36 33 32 33 33 31 31
34 35 34 34 33 31 28 26 24 23 21 20 20 19 19 19 19 19 19 20 21 22 23 25 26 26 24 22 23 24 25 25 26 28 30 34 34 32 31 29 30 32 33 37 45 48 47 46 45 46 46 43 40 37 35 35 35 33 31 32 32 30 31
34 36 35 35 34 32 29 26 24 23 22 21 20 20 19 19 20 20 20 20 21 22 24 26 27 26 24 22 23 24 25 26 27 30 32 33 33 30 28 29 30 30 30 34 41 46 47 46 46 47 45 39 36 35 34 32 33 33 31 31 31 30 30
35 36 36 35 35 32 29 27 25 24 22 21 20 20 19 19 20 20 20 20 21 21 23 25 27 26 22 21 22 23 25 27 27 30 32 32 30 27 27 30 32 30 30 32 37 41 45 47 45 44 42 37 32 32 33 32 32 30 27 27 28 28 28
35 36 37 36 35 32 30 27 26 24 23 22 21 20 20 19 19 20 21 20 20 21 22 25 25 24 20 19 21 23 25 27 28 29 30 29 28 27 29 32 32 30 30 32 36 39 42 43 42 42 42 39 32 29 29 27 29 29 26 24 25 26 26
34 35 37 37 35 32 30 28 26 25 24 23 21 20 20 19 20 21 21 21 21 21 22 23 22 19 17 18 21 24 25 26 26 26 27 27 27 29 31 32 31 30 30 33 35 37 39 41 44 43 41 37 30 27 25 22 24 30 30 27 25 25 25
35 34 36 37 35 33 31 29 27 26 25 23 21 20 20 20 20 21 21 21 22 22 22 21 19 17 17 20 22 23 23 23 22 23 25 27 27 28 30 31 29 28 31 34 35 38 41 42 43 41 38 34 28 25 26 25 25 29 30 28 28 27 26
36 34 34 36 35 34 33 31 28 27 25 23 21 20 20 21 21 21 22 23 22 22 21 19 17 17 18 21 22 21 22 22 23 23 25 26 26 27 29 30 30 29 32 36 38 41 42 40 40 40 37 34 30 28 31 31 29 30 29 28 30 29 24
37 35 34 35 35 35 33 32 29 27 25 23 22 21 21 21 22 22 22 23 23 22 20 18 17 18 19 21 21 21 21 22 24 23 24 24 24 25 27 28 28 30 32 37 40 40 39 37 39 41 38 35 35 35 36 33 28 27 28 27 28 28 24
39 36 35 35 35 35 33 32 30 27 25 24 23 23 22 21 22 22 22 23 24 22 19 18 18 19 19 19 19 20 21 22 22 22 23 24 23 24 25 24 24 28 32 36 38 37 36 36 37 40 39 38 39 39 37 33 27 27 28 27 26 26 25
40 38 36 35 35 34 32 31 30 27 25 24 23 23 23 22 22 22 22 23 23 21 20 19 19 18 18 18 18 20 21 22 22 22 23 24 24 23 23 23 24 27 31 33 33 33 35 35 35 38 40 38 36 36 36 34 31 29 29 29 28 27 28
40 39 37 35 33 33 32 31 29 27 25 24 23 23 23 24 24 23 22 22 22 21 21 19 19 19 18 18 18 19 21 21 21 22 23 25 25 22 22 24 26 28 29 30 30 32 34 35 34 36 39 37 34 32 33 34 33 30 30 31 31 31 31
40 40 38 35 33 32 32 31 28 26 25 24 23 22 23 24 26 25 23 22 21 22 21 20 20 19 19 19 18 19 20 21 21 22 24 25 25 22 23 25 26 27 28 29 29 30 33 34 34 34 35 34 32 31 32 31 30 28 28 31 31 32 34
40 40 39 36 33 32 32 31 27 26 25 24 23 23 23 25 26 26 24 22 22 21 21 20 20 19 18 19 19 19 19 19 20 22 24 24 24 24 24 24 25 27 26 26 27 29 31 33 33 32 31 29 29 33 34 32 31 29 27 26 27 29 32
39 39 39 37 35 33 32 30 27 25 25 24 23 24 24 25 26 26 24 22 21 21 20 20 19 18 18 19 19 19 18 17 19 21 22 24 25 25 25 26 26 26 23 22 25 27 29 31 31 30 28 27 27 29 28 27 28 28 26 26 26 26 25
37 38 39 39 36 33 31 30 26 25 26 25 24 24 25 25 26 25 23 22 21 20 19 19 18 17 18 19 18 18 17 17 18 20 22 24 25 25 26 28 28 26 23 22 22 24 26 30 30 30 28 26 24 22 21 22 25 25 24 26 27 26 24
35 37 38 39 37 34 32 30 27 26 26 25 24 24 24 25 25 24 23 21 20 19 18 18 18 16 16 18 18 17 18 18 17 19 22 23 24 25 27 29 29 28 28 26 24 24 27 29 29 29 28 26 23 20 19 20 22 23 24 25 28 28 27
33 35 37 37 37 35 34 32 28 26 26 25 24 24 24 25 24 23 22 20 19 18 16 16 17 15 15 16 17 17 18 17 16 18 21 22 23 24 26 28 29 29 28 27 25 26 27 28 28 27 27 27 24 21 19 17 17 20 23 24 27 30 30
31 33 35 36 36 36 35 32 29 26 26 25 24 24 24 25 24 21 20 20 19 17 15 15 16 15 14 15 17 17 18 17 17 19 21 21 21 22 24 28 29 28 25 24 24 25 25 26 26 26 26 26 24 21 19 17 15 17 20 23 26 29 32
29 31 33 34 35 36 34 33 30 27 25 24 24 23 24 24 23 20 19 20 19 15 13 14 15 15 14 15 16 17 18 18 19 19 20 20 21 22 25 26 26 24 22 21 21 22 22 23 24 25 26 27 25 21 18 16 15 14 15 19 23 26 30
29 30 32 34 35 35 35 34 32 29 26 24 24 23 23 23 22 20 19 20 17 13 12 14 15 14 14 14 16 18 18 18 18 19 20 20 21 23 23 22 21 20 20 19 18 19 19 20 23 24 25 27 26 22 19 17 16 15 12 12 16 20 26
29 31 32 34 35 36 36 35 34 31 27 25 23 23 22 21 21 20 20 19 16 11 11 13 14 13 13 14 16 17 17 17 17 19 19 19 20 21 20 18 17 17 16 16 16 16 17 19 21 23 24 24 25 23 19 16 14 14 12 8 7 11 16
30 31 32 34 35 36 36 36 35 33 29 25 24 22 21 21 21 20 20 19 15 10 10 13 14 13 13 14 15 15 14 14 16 16 16 17 19 19 18 16 15 15 14 14 14 15 16 18 19 20 21 21 21 21 19 15 12 11 10 7 3 2 6
31 32 33 34 35 36 36 36 36 34 30 27 25 22 21 21 21 18 19 20 16 10 11 13 13 12 12 13 14 13 12 12 13 14 14 16 18 17 15 14 14 13 13 13 13 14 16 17 17 17 18 19 20 21 20 18 14 11 10 8 6 3 1
32 33 34 34 35 35 35 35 36 35 32 28 26 24 21 21 20 19 19 19 15 11 11 12 11 10 11 11 11 10 10 11 12 13 14 15 15 14 13 12 12 12 12 12 13 14 14 15 16 17 18 19 21 22 21 19 17 15 13 10 6 4 3
31 33 33 33 33 34 35 36 37 37 33 29 26 24 22 21 21 21 20 17 12 10 11 11 9 9 9 9 8 8 9 10 11 11 12 12 11 10 9 9 9 9 10 10 11 12 13 14 16 17 18 19 22 24 24 24 22 19 17 14 9 6 5
29 30 30 30 31 32 34 35 35 33 31 27 24 23 21 19 19 19 17 14 12 11 11 10 8 8 8 6 5 5 6 8 9 8 8 8 7 7 7 7 8 9 10 12 12 13 14 15 16 17 19 19 21 23 25 27 27 25 23 20 15 12 11
28 27 27 28 30 31 31 30 29 28 27 26 23 21 20 18 17 15 14 14 13 12 11 9 8 7 6 3 2 2 3 4 5 5 6 6 6 7 8 9 11 14 16 16 17 18 19 19 19 19 20 21 21 22 24 25 27 28 29 28 25 22 19
25 26 27 27 28 28 28 27 26 26 25 22 20 20 20 19 17 16 15 15 13 12 10 9 8 7 5 3 2 2 3 5 6 6 8 9 9 10 12 14 16 18 19 20 22 23 23 23 24 23 23 23 23 23 24 24 25 27 29 30 31 30 27
21 22 24 25 25 25 25 26 26 25 23 19 17 18 19 19 17 16 16 15 13 12 11 9 8 8 7 6 5 6 7 8 8 9 10 11 12 13 15 17 19 20 21 22 24 25 26 27 27 27 27 26 26 25 25 25 26 26 27 29 30 31 31
21 20 20 22 24 22 21 22 24 22 20 19 18 18 18 18 17 16 16 15 13 13 12 10 10 10 9 9 8 8 9 10 10 10 11 12 13 14 16 17 19 19 20 22 24 25 27 27 28 29 29 30 30 29 29 28 28 27 26 27 29 29 30
20 21 19 21 24 22 19 19 21 20 18 18 18 19 19 18 17 17 16 15 13 13 13 12 12 12 12 11 10 10 10 11 11 11 11 12 13 13 15 16 17 18 20 22 23 24 26 27 28 29 30 31 31 32 32 32 31 30 28 28 28 29 28
16 19 19 19 22 24 21 19 19 19 19 19 20 22 22 21 20 20 19 16 15 15 14 13 14 14 14 13 11 11 10 10 10 10 11 11 11 12 13 15 16 17 19 21 22 23 25 27 28 29 30 31 32 33 34 34 34 33 32 30 29 28 28
13 14 16 18 20 22 22 21 20 21 22 23 24 26 26 23 22 22 19 16 16 17 16 16 16 16 15 14 12 11 10 10 9 8 9 9 9 10 12 14 15 16 18 19 21 22 24 25 27 28 29 31 32 33 34 34 35 34 34 33 31 30 29
Wind_Direction
248 246 245 245 246 248 249 252 258 262 264 265 266 265 260 256 253 253 257 255 255 255 253 255 259 261 264 266 269 273 276 278 282 285 290 293 296 298 291 283 282 281 289 299 303 303 307 311 312 313 314 314 314 313 310 308 307 308 308 308 308 306 303
247 245 243 243 245 247 248 252 257 260 263 265 266 265 261 257 255 254 256 255 253 254 255 259 263 265 268 272 276 279 280 281 283 287 292 296 298 299 295 287 285 285 287 295 303 306 307 313 315 313 313 314 312 312 311 308 305 306 306 306 307 305 304
245 243 242 243 244 246 247 250 255 259 262 265 266 266 263 259 257 256 257 257 257 258 260 262 266 270 274 280 285 285 284 285 289 294 296 298 300 299 298 292 289 290 288 291 301 306 309 314 316 314 313 313 311 309 310 309 306 305 305 306 305 302 302
245 242 240 241 243 245 247 250 254 259 261 263 265 266 264 261 259 259 259 260 261 261 262 264 268 273 279 284 286 286 287 290 294 297 297 298 300 299 297 297 295 294 291 289 296 305 309 311 312 313 313 312 309 307 306 307 306 304 303 303 300 297 297
245 242 240 241 243 245 248 251 254 258 261 262 264 265 264 262 260 260 261 262 263 262 264 267 271 276 281 282 283 283 286 292 295 297 298 297 297 297 298 302 302 300 296 291 293 302 308 309 308 311 313 311 308 307 305 304 303 301 300 299 295 293 296
248 246 243 242 243 245 248 251 253 257 261 261 262 264 263 262 260 261 262 262 265 266 266 268 273 278 279 276 279 284 288 295 298 297 296 295 296 301 305 306 306 304 300 295 294 298 304 308 309 309 309 308 307 305 304 304 303 300 300 299 296 297 300
249 249 246 244 244 246 248 250 252 257 260 260 262 263 263 263 261 261 263 264 266 268 269 271 273 274 275 277 283 287 289 293 296 295 295 297 301 307 308 305 304 304 300 296 297 299 301 303 306 305 304 306 307 304 301 301 302 301 301 301 298 297 300
250 250 248 246 246 246 247 249 252 256 259 260 262 264 263 264 263 263 264 265 268 270 272 274 275 273 277 283 283 284 287 292 295 297 298 300 302 303 304 303 303 301 299 298 299 300 299 300 302 303 304 307 309 307 304 301 299 298 299 299 295 290 291
249 248 247 247 247 247 247 249 252 255 259 260 262 263 264 264 264 264 265 265 268 273 276 278 280 279 281 282 280 283 288 291 292 293 293 294 296 300 302 302 299 295 297 301 299 298 299 300 302 303 305 307 306 304 304 302 298 294 293 295 294 289 288
248 246 245 246 246 247 248 250 253 256 259 260 260 261 261 263 264 263 264 266 269 273 278 281 283 282 280 279 282 285 286 286 287 287 288 291 296 300 301 299 297 296 298 300 298 298 300 300 300 302 302 301 300 300 302 303 298 293 291 291 292 290 288
249 246 245 245 245 246 248 251 255 257 258 259 258 258 259 261 263 263 263 265 269 274 278 282 283 281 279 280 283 286 288 288 290 291 292 294 298 301 299 295 295 295 296 297 297 300 302 299 299 302 303 300 300 303 305 303 296 290 288 286 287 287 286
251 248 246 245 244 246 248 252 255 257 257 257 257 257 259 260 261 262 264 265 269 274 279 282 283 281 281 283 286 289 291 292 293 294 294 296 301 302 300 300 297 293 294 297 299 301 302 302 303 305 305 303 304 306 306 302 295 289 285 281 279 280 281
252 249 247 245 244 245 248 251 254 255 255 255 255 255 258 262 263 262 264 267 271 275 279 282 285 285 286 288 289 291 292 293 294 296 296 299 303 301 301 307 307 301 300 302 302 300 303 307 308 305 303 303 306 306 302 297 292 289 286 280 274 272 276
253 251 249 247 245 245 248 249 251 253 253 254 253 252 253 260 265 265 266 270 272 275 280 283 287 290 290 291 292 292 292 291 294 298 299 300 303 305 307 310 312 309 306 305 304 304 307 308 305 302 301 303 306 304 299 296 293 290 288 284 277 269 269
254 253 252 250 247 246 247 248 250 250 251 251 252 250 249 254 261 265 268 272 274 276 280 283 287 291 291 292 294 292 291 293 298 301 301 302 306 313 313 310 312 312 308 307 309 308 306 304 301 299 299 302 303 298 294 293 290 286 285 286 283 274 267
256 255 254 251 248 247 248 248 248 249 249 249 249 248 247 251 258 263 267 272 274 276 281 284 288 291 291 292 294 292 292 298 302 302 302 305 311 315 312 308 310 310 308 310 312 307 300 298 298 296 294 293 293 291 289 287 281 275 272 275 279 277 271
258 256 255 253 250 248 248 246 247 248 247 247 246 245 246 252 257 261 266 271 273 277 281 286 290 293 292 291 293 293 294 298 300 301 304 306 311 313 312 310 309 308 310 315 312 305 301 300 300 301 298 292 290 293 295 292 282 274 267 263 266 270 272
261 258 257 256 252 250 249 247 246 247 245 245 245 244 247 254 258 261 265 268 271 276 282 287 291 292 290 290 292 293 294 297 300 303 304 306 311 315 314 311 309 312 320 323 314 305 302 303 306 309 309 307 306 306 302 290 279 271 265 258 256 260 264
260 258 258 258 255 253 251 249 246 243 242 244 244 243 247 254 258 261 264 266 270 276 283 289 290 288 287 287 290 291 293 299 303 302 303 307 312 315 313 311 312 318 325 324 319 312 307 307 312 317 319 320 323 323 313 297 281 269 263 256 251 253 256
260 259 258 258 256 253 251 249 245 241 240 243 242 241 246 253 259 262 264 267 270 276 284 288 287 285 283 283 287 291 295 300 301 299 303 311 315 314 312 310 312 317 321 319 317 315 312 313 321 326 328 331 335 334 327 314 293 272 262 256 251 248 248
262 260 258 257 256 254 252 250 246 240 238 242 243 241 243 252 260 264 265 267 269 276 285 286 282 281 281 283 289 293 295 298 298 301 310 317 315 310 306 305 310 315 316 314 313 313 313 317 326 332 335 340 347 346 335 324 307 284 267 258 254 248 243
262 260 258 257 255 254 252 250 247 241 237 240 243 240 241 249 260 264 263 264 269 276 284 283 278 279 282 286 290 292 294 297 302 310 318 317 311 307 304 306 311 315 315 315 314 313 316 323 332 339 343 348 353 352 343 336 325 307 283 264 259 253 244
260 258 257 255 253 253 252 250 248 243 238 237 240 239 239 246 256 262 261 262 268 277 283 280 278 281 283 286 289 291 295 303 311 317 319 314 311 310 308 310 314 315 316 318 317 318 325 333 341 348 353 355 356 354 350 343 333 325 312 283 263 255 247
257 254 253 252 251 251 251 250 248 244 239 236 237 239 238 240 249 257 261 263 268 275 281 281 280 280 281 285 289 293 299 310 317 317 316 314 312 310 309 313 318 320 322 324 323 328 339 345 350 359 3 1 359 359 358 352 343 338 336 318 273 255 251
254 252 251 250 249 249 249 249 247 244 239 236 237 238 235 236 243 250 256 263 270 274 277 279 278 277 281 286 290 296 306 314 315 313 313 313 311 309 312 318 323 327 331 333 337 345 351 354 360 9 13 10 7 6 6 7 5 360 356 356 350 258 243
252 251 250 248 248 247 247 247 246 243 240 237 237 236 231 233 240 240 243 255 266 270 271 275 275 276 284 288 291 301 313 315 313 313 314 314 313 313 318 324 329 337 342 346 353 358 0 1 6 16 22 24 24 21 18 17 19 21 25 26 26 35 51
251 250 248 247 246 245 244 244 244 243 240 236 236 236 231 230 235 232 233 245 259 264 266 271 273 275 282 287 294 308 318 318 319 318 317 318 319 320 325 333 341 348 351 356 4 8 8 9 12 19 26 33 38 38 35 31 28 31 41 47 47 53 61
253 252 251 249 247 245 242 242 242 243 240 236 236 236 232 229 230 229 232 243 253 256 259 264 267 271 277 286 300 316 323 326 327 325 325 327 327 329 338 346 350 355 360 7 14 17 18 19 20 23 28 35 42 45 46 45 44 45 51 55 62 80 91
260 259 257 255 252 247 242 243 245 246 242 238 237 237 235 232 232 232 237 243 245 248 254 255 257 261 267 282 303 316 325 333 336 337 343 347 345 350 4 12 16 22 27 28 31 31 30 29 29 31 35 40 44 47 48 48 49 52 56 61 66 71 75
262 262 261 257 255 252 250 252 254 251 244 240 238 234 231 229 229 231 233 233 234 239 243 241 243 248 247 252 291 319 348 4 8 14 25 30 29 30 38 44 45 46 46 44 43 42 41 39 38 37 39 43 48 50 51 50 49 50 53 57 61 64 66
261 261 260 258 256 254 253 254 253 248 242 241 237 229 221 218 216 217 221 226 229 231 230 225 225 228 217 191 159 119 90 76 69 66 64 62 60 58 59 61 60 58 55 53 52 51 49 47 46 44 42 44 48 51 53 54 53 51 51 53 55 57 59
262 259 256 255 255 253 248 245 243 240 236 232 226 218 213 210 208 210 215 220 222 221 218 213 210 206 191 167 148 130 111 99 90 83 79 75 72 69 67 65 63 61 58 56 55 54 53 51 49 48 47 46 47 49 51 53 54 53 52 53 54 55 56
256 255 248 243 245 250 246 237 233 232 229 222 214 207 205 203 202 207 213 216 216 213 207 201 199 193 176 159 148 134 117 108 100 92 86 82 76 71 68 66 64 61 59 57 56 54 54 53 51 50 50 49 48 48 49 50 52 52 53 54 55 55 55
246 245 242 231 228 234 238 231 224 221 218 215 207 201 200 199 196 202 210 211 209 208 202 195 192 185 171 158 148 135 121 111 103 96 90 84 79 76 73 70 68 64 60 58 55 54 53 53 51 50 49 49 50 50 49 49 49 49 50 51 53 55 55
248 239 237 228 219 219 221 221 216 208 203 199 193 190 195 198 196 201 206 204 200 199 195 191 189 181 169 159 148 135 123 114 106 99 93 88 84 83 80 75 70 65 61 58 55 53 53 52 51 50 49 48 48 49 49 49 48 47 47 48 50 52 53
264 242 232 222 215 211 208 207 205 198 191 186 183 189 199 204 203 205 206 201 198 197 189 185 186 181 170 160 149 136 126 119 112 105 100 96 90 85 82 77 70 65 61 57 54 53 52 51 50 50 50 49 49 48 49 49 49 48 48 47 48 49 50